Location: Unspecified
(0.0000°N, 0.0000°E)
Time: 09:16:01
(UTC+00:00)

ARIANE 1 DEB - Pass Details

Date: 22 February 2026
Orbit: 1090 x 21662 km, 16.1° (Epoch: 9 December)

Event Time Altitude Azimuth Distance (km) Brightness Sun altitude
Rises 16:39:09 0° 289° (WNW) 5,339 ? 23.2°
Reaches altitude 10° 16:41:19 10° 290° (WNW) 4,823 ? 22.7°
Maximum altitude 16:56:54 86° 20° (NNE) 5,205 ? 18.8°
Drops below altitude 10° 21:30:19 10° 105° (ESE) 19,757 ? -48.2°
Sets 21:52:29 0° 102° (ESE) 17,583 ? -53.6°
